TimeEDT,TemperatureF,Dew PointF,Humidity,Sea Level PressureIn,VisibilityMPH,Wind Direction,Wind SpeedMPH,Gust SpeedMPH,PrecipitationIn,Events,Conditions,WindDirDegrees,DateUTC
12:53 AM,28.0,12.9,53,29.76,10.0,Calm,Calm,-,N/A,,Clear,0,2013-03-22 04:53:00
1:53 AM,26.1,12.9,58,29.77,10.0,Calm,Calm,-,N/A,,Clear,0,2013-03-22 05:53:00
2:53 AM,26.1,14.0,60,29.76,10.0,Calm,Calm,-,N/A,,Clear,0,2013-03-22 06:53:00
3:53 AM,27.0,15.1,61,29.75,10.0,Calm,Calm,-,N/A,,Partly Cloudy,0,2013-03-22 07:53:00
4:53 AM,28.0,17.1,63,29.75,10.0,West,4.6,-,N/A,,Clear,280,2013-03-22 08:53:00
5:53 AM,28.0,17.1,63,29.76,10.0,Variable,4.6,-,N/A,,Clear,0,2013-03-22 09:53:00
6:53 AM,28.0,17.1,63,29.78,10.0,Calm,Calm,-,N/A,,Clear,0,2013-03-22 10:53:00
7:53 AM,28.9,18.0,64,29.81,10.0,Variable,3.5,-,N/A,,Clear,0,2013-03-22 11:53:00
8:53 AM,32.0,18.0,56,29.81,10.0,West,8.1,-,N/A,,Clear,270,2013-03-22 12:53:00
9:53 AM,34.0,18.0,52,29.82,10.0,NW,12.7,18.4,N/A,,Mostly Cloudy,310,2013-03-22 13:53:00
10:53 AM,34.0,17.1,50,29.83,10.0,Variable,6.9,21.9,N/A,,Overcast,0,2013-03-22 14:53:00
11:53 AM,36.0,15.1,43,29.82,10.0,WNW,13.8,24.2,N/A,,Overcast,300,2013-03-22 15:53:00
12:53 PM,37.9,15.1,39,29.81,10.0,NW,9.2,16.1,N/A,,Overcast,310,2013-03-22 16:53:00
1:53 PM,39.0,15.1,38,29.80,10.0,Variable,6.9,-,N/A,,Mostly Cloudy,0,2013-03-22 17:53:00
2:53 PM,41.0,17.1,38,29.79,10.0,NW,12.7,16.1,N/A,,Overcast,310,2013-03-22 18:53:00
3:53 PM,41.0,17.1,38,29.80,10.0,WNW,8.1,19.6,N/A,,Overcast,290,2013-03-22 19:53:00
4:53 PM,41.0,16.0,36,29.80,10.0,WNW,10.4,20.7,N/A,,Overcast,290,2013-03-22 20:53:00
5:53 PM,41.0,18.0,40,29.81,10.0,West,8.1,18.4,N/A,,Overcast,280,2013-03-22 21:53:00
6:53 PM,39.9,18.0,41,29.84,10.0,WNW,11.5,19.6,N/A,,Overcast,290,2013-03-22 22:53:00
7:53 PM,37.9,19.9,48,29.86,10.0,West,5.8,-,N/A,,Partly Cloudy,280,2013-03-22 23:53:00
8:53 PM,36.0,21.0,55,29.87,10.0,Variable,4.6,-,N/A,,Clear,0,2013-03-23 00:53:00
9:53 PM,35.1,21.0,57,29.89,10.0,West,6.9,-,N/A,,Clear,280,2013-03-23 01:53:00
10:53 PM,34.0,21.0,59,29.90,10.0,Variable,5.8,-,N/A,,Mostly Cloudy,0,2013-03-23 02:53:00
11:53 PM,34.0,21.0,59,29.90,10.0,WNW,6.9,-,N/A,,Clear,290,2013-03-23 03:53:00